{"data":{"norad_id":68698,"epoch":"2026-09-20T04:43:24.194784Z","epoch_age_seconds":89345,"freshness":"FRESH","line1":"1 68698U 26080H   26263.19680781  .00002675  00000+0  17619-3 0  9998","line2":"2 68698  97.6573 338.6880 0016332 101.3245 258.9819 15.08284540 23951","mean_motion":15.0828454,"eccentricity":0.0016332,"inclination_deg":97.6573,"raan_deg":338.688,"arg_perigee_deg":101.3245,"mean_anomaly_deg":258.9819,"bstar":0.00017619,"rev_number":2395,"period_min":95.472701722448,"perigee_km":530.14067301771,"apogee_km":552.74278497811,"semimajor_km":6919.5787289979,"source":"CELESTRAK","updated_at":"2026-09-20T09:00:24.409982Z"}}